Weather in Kurortny poselok Ozero-Karachi

Russia / Novosibirsk Oblast     55°21′00″N   76°58′12″E
temp.,
°C
wind,
m/s
gust,
m/s
humid.,
%
clouds,
%
prec.,
mm/h
press.,
hPa
HPBL,
m
27 february, sat
sat2701:00−28sw359896 0.0 103491
04:00−28sw3598100 0.0 1034115
07:00−31sw339877 0.0 103528
10:00−31sw239754 0.0 103542
13:00−27sw349234 0.0 1036236
16:00−24ssw349397 0.0 1036316
19:00−28s349675 0.0 103643
22:00−30s34970 0.0 103638
28 february, sun
sun2801:00−30s34987 0.0 103546
04:00−30sse349967 0.0 103357
07:00−29se449957 0.0 103270
10:00−25se599889 0.0 1030246
13:00−21se599394 0.0 1028319
16:00−18ese6993100 0.0 1025357
19:00−18ese6109498 0.1 1022391
22:00−17e61195100 0.1 1018288
1 march, mon
mon101:00−14e71195100 0.4 1014337
04:00−11e71295100 1.4 1009407
07:00−9ene71294100 2.7 1006395
10:00−9ene61195100 0.8 1005375
13:00−7ne6895100 2.6 1004293
16:00−8ne6995100 1.1 1005302
19:00−10nne5894100 2.1 1007353
22:00−13nnw589592 0.3 1010264
2 march, tue
tue201:00−17nnw349787 0.3 101279
04:00−20nw339986 0.0 101535
07:00−21nw229989 0.1 101620
10:00−19w119797 0.0 101776
13:00−16sw129096 0.1 1018285
16:00−14ssw2388100 0.1 1017397
19:00−15s2296100 0.1 101633
22:00−17sse229694 0.1 101620
3 march, wed
wed301:00−17sse119796 0.1 101620
04:00−17ene0197100 0.2 101520
07:00−18ne0098100 0.4 101620
10:00−17wnw119677 0.1 101641
13:00−14wsw228975 0.1 1017303
16:00−13sw2388100 0.0 1018461
19:00−16ssw3395100 0.1 102036
22:00−19s349865 0.0 102038